FW7761 Weather Reports


time (UTC)temp
C
wind
direction
speed
KPH
gust
KPH
rain 1hr
cm
rain 24hr
cm
rain mn
cm
humidity
%
barometer
mb
20260504034529 12 125 3.2 4.8 0.00 0.30 0.00 96 1013.6
20260504033523 12 124 3.2 6.4 0.00 0.30 0.00 95 1013.6
20260504032518 12 129 4.8 11.3 0.00 0.30 0.00 95 1013.5
20260504031532 12 122 6.4 11.3 0.00 0.30 0.00 95 1013.6
20260504030526 12 118 3.2 6.4 0.00 0.30 0.00 95 1013.6
20260504025521 12 104 3.2 4.8 0.00 0.30 0.00 95 1013.7
20260504024533 12 109 1.6 4.8 0.00 0.30 0.00 95 1013.9
20260504023528 12 0.0 0.0 0.00 0.30 0.00 95 1013.9
20260504022523 12 0.0 0.0 0.00 0.30 0.00 95 1014.0
20260504021517 12 0.0 0.0 0.00 0.30 0.00 95 1013.9
20260504020532 13 105 1.6 3.2 0.00 0.30 0.00 95 1014.0
20260504015547 13 137 3.2 4.8 0.00 0.30 0.00 94 1014.2
20260504014521 13 139 1.6 3.2 0.00 0.30 0.00 94 1014.2
20260504013535 13 114 1.6 4.8 0.00 0.30 0.00 94 1014.1
20260504012529 13 145 1.6 4.8 0.00 0.30 0.00 94 1014.2
20260504011524 13 118 1.6 3.2 0.00 0.30 0.00 94 1014.2
20260504010519 13 150 3.2 6.4 0.00 0.30 0.00 94 1014.2
20260504005553 13 152 1.6 4.8 0.00 0.30 0.00 94 1014.3
20260504004547 13 133 1.6 4.8 0.00 0.30 0.00 94 1014.3
20260504003523 13 125 1.6 6.4 0.00 0.30 0.00 94 1014.4
20260504002556 13 129 3.2 6.4 0.00 0.30 0.00 94 1014.5
20260504001531 13 116 3.2 6.4 0.00 0.30 0.00 94 1014.6
20260504000524 13 98 3.2 6.4 0.00 0.30 0.00 94 1014.6
20260503235519 13 131 1.6 6.4 0.00 0.30 0.00 94 1014.7
20260503234534 13 118 3.2 6.4 0.00 0.30 0.00 94 1014.9
20260503233527 12 114 3.2 6.4 0.00 0.30 0.00 94 1015.1
20260503232522 12 84 4.8 11.3 0.00 0.30 0.00 94 1014.7
20260503231539 12 107 6.4 12.9 0.00 0.30 0.00 94 1015.0
20260503230551 12 104 4.8 9.7 0.00 0.30 0.00 94 1015.1
20260503225526 12 106 4.8 11.3 0.00 0.30 0.00 94 1015.2
20260503224519 12 101 4.8 11.3 0.00 0.30 0.00 94 1015.1
20260503223534 12 109 4.8 11.3 0.00 0.30 0.00 94 1015.0
20260503222529 12 94 4.8 11.3 0.00 0.30 0.00 94 1015.1
20260503221522 12 98 6.4 11.3 0.00 0.30 0.00 94 1015.3
20260503220538 12 94 4.8 11.3 0.00 0.30 0.00 94 1015.1
20260503215551 13 93 6.4 12.9 0.00 0.30 0.30 94 1015.1
20260503214544 13 95 4.8 11.3 0.00 0.30 0.30 93 1015.1
20260503213519 13 95 8.0 17.7 0.00 0.30 0.30 93 1015.1
20260503212555 13 93 3.2 6.4 0.00 0.30 0.30 94 1015.2
20260503211527 13 108 4.8 9.7 0.00 0.30 0.30 93 1015.2
20260503210521 13 113 4.8 11.3 0.00 0.30 0.30 93 1015.0
20260503205536 13 54 1.6 4.8 0.00 0.30 0.30 93 1014.9
20260503204531 13 77 4.8 11.3 0.00 0.30 0.30 93 1014.8
20260503203525 13 111 6.4 12.9 0.00 0.30 0.30 93 1014.7
20260503202520 13 116 9.7 20.9 0.00 0.30 0.30 92 1014.5
20260503201533 13 121 8.0 16.1 0.00 0.30 0.30 92 1014.4
20260503200527 13 109 9.7 20.9 0.00 0.30 0.30 92 1014.4
20260503195543 14 107 8.0 16.1 0.00 0.30 0.30 92 1014.1
20260503194517 14 119 8.0 12.9 0.00 0.30 0.30 92 1014.0
20260503193532 14 118 8.0 12.9 0.00 0.30 0.30 92 1013.7
20260503192525 15 115 8.0 14.5 0.00 0.30 0.30 91 1013.6
20260503191519 15 100 4.8 12.9 0.00 0.30 0.30 91 1013.6
20260503190533 15 111 6.4 12.9 0.00 0.30 0.30 91 1013.5
20260503185607 15 110 8.0 14.5 0.00 0.30 0.30 90 1013.3
20260503184603 15 109 8.0 12.9 0.00 0.30 0.30 89 1013.2
20260503183535 16 123 8.0 16.1 0.00 0.30 0.30 89 1013.2
20260503182529 16 119 9.7 16.1 0.00 0.30 0.30 88 1013.1
20260503181546 16 127 9.7 16.1 0.00 0.30 0.30 88 1013.0
20260503180518 16 127 8.0 12.9 0.00 0.30 0.30 87 1012.9
20260503175534 16 132 9.7 16.1 0.00 0.30 0.30 86 1013.0
20260503174527 17 119 8.0 14.5 0.00 0.30 0.30 84 1012.8
20260503173520 18 231 1.6 4.8 0.00 0.30 0.30 78 1012.8
20260503172535 17 258 1.6 3.2 0.00 0.30 0.30 77 1012.8
20260503171529 17 251 1.6 3.2 0.00 0.30 0.30 76 1012.8
20260503170522 17 243 0.0 3.2 0.00 0.30 0.30 77 1013.0
20260503150537 18 199 8.0 14.5 0.00 0.15 0.15 78 1013.4
20260503130546 15 178 6.4 14.5 0.00 0.10 0.10 88 1014.9
20260503110540 16 133 6.4 11.3 0.03 0.05 0.05 84 1015.6
20260503081543 13 109 9.7 16.1 0.00 0.03 0.03 94 1016.3
20260503080517 13 119 9.7 16.1 0.00 0.03 0.03 94 1016.3
20260503072535 12 114 8.0 14.5 0.00 0.03 0.03 95 1016.3
20260503071529 12 111 8.0 14.5 0.00 0.03 0.03 95 1016.3
20260503070523 12 113 8.0 14.5 0.00 0.03 0.03 95 1016.3
20260503054518 12 112 8.0 14.5 0.00 0.00 0.00 95 1016.0
20260503053531 12 115 6.4 12.9 0.00 0.00 0.00 95 1015.9
20260503052527 12 115 6.4 12.9 0.00 0.00 0.00 95 1016.0
20260503051520 12 99 6.4 11.3 0.00 0.00 0.00 94 1015.9
20260503050534 12 103 6.4 14.5 0.00 0.00 0.00 94 1016.1
20260503045528 12 110 6.4 11.3 0.00 0.00 0.00 94 1016.0
20260503044544 12 102 4.8 11.3 0.00 0.00 0.00 94 1015.9
20260503043518 12 111 4.8 9.7 0.00 0.00 0.00 94 1016.1
20260503042531 12 98 4.8 9.7 0.00 0.00 0.00 94 1016.1
20260503041545 12 96 3.2 9.7 0.00 0.00 0.00 94 1016.1
20260503040519 12 103 6.4 12.9 0.00 0.00 0.00 94 1016.3
20260503035533 12 106 4.8 12.9 0.00 0.00 0.00 94 1016.3